Regional Weather Roundup
Issued by NWS

Home | Current Version | Previous Version | Text Only | Print | Product List | Glossary Off
Versions: 1 2 3 4 5 6 7 8 9 10 11 12 13 14 15 16 17 18 19 20 21 22 23 24 25 26 27 28 29 30 31 32 33 34 35 36 37 38 39 40 41 42 43 44 45 46 47 48 49 50

000
ASUS43 KDTX 271610
RWRMI
MICHIGAN HOURLY REGIONAL WEATHER ROUNDUP
NATIONAL WEATHER SERVICE DETROIT/PONTIAC MI
1200 PM EDT TUE SEP 27 2016

NOTE: "FAIR" INDICATES FEW OR NO CLOUDS BELOW 12,000 FEET WITH NO
SIGNIFICANT WEATHER AND/OR OBSTRUCTION TO VISIBILITY.

MIZ047>049-052>055-059>063-066>070-074>076-081>083-271700-
SOUTHEAST LOWER MICHIGAN

CITY           SKY/WX    TMP DP  RH WIND       PRES   REMARKS
ADRIAN         SUNNY     64  39  39 W16G25    29.81F
ALMA           CLOUDY    61  48  62 W15G32    29.71S
ANN ARBOR      SUNNY     65  41  41 S21G32    29.77F
BAD AXE        MOSUNNY   59  46  62 SW10      29.69F
CARO           CLOUDY    61  46  59 SW12G22   29.69F
DETROIT CITY   SUNNY     64  41  42 SW14G24   29.76F
DETROIT        MOSUNNY   65  42  43 SW20      29.78F
FLINT          MOSUNNY   63  45  51 W16G31    29.72F
GROSSE ILE     SUNNY     66  41  40 SW13G23   29.78F
HILLSDALE      SUNNY     63  34  34 W16G23    29.79F
HOWELL         SUNNY     63  45  51 W13G25    29.75S

CITY           SKY/WX    TMP DP  RH WIND       PRES   REMARKS
JACKSON        SUNNY     63  44  50 W23G30    29.77F
LAMBERTVILLE   SUNNY     67  41  38 W13G21    29.81F
LANSING        PTSUNNY   63  43  48 W22G32    29.74S
LAPEER         FAIR      65  45  49 W16G23    29.72F
MASON          PTSUNNY   62  46  54 W15G22    29.75S
MONROE         SUNNY     67  42  40 MISG      29.79F
MT. CLEMENS    MOSUNNY   66  43  42 SW15G23   29.73F
PONTIAC        MOSUNNY   62  42  47 SW17      29.74F
PORT HURON     SUNNY     64  45  48 SW14G21   29.74S
TRI CITIES     CLOUDY    61  47  59 SW23G29   29.69F
MIDLAND        CLOUDY    60  46  61 SW10G17   29.67F
TROY           SUNNY     65  39  37 SW14      29.77F
SAGINAW HB     MOSUNNY   63  46  55 SW12G24   29.69F
$$
MIZ043>046-050>051-056>058-064>065-071>073-077>080-271700-
SOUTHWEST LOWER MICHIGAN

CITY           SKY/WX    TMP DP  RH WIND       PRES   REMARKS
BATTLE CREEK   MOSUNNY   64  43  46 W21G32    29.77S
BENTON HARBOR  SUNNY     66  35  31 W29G37    29.79F
BIG RAPIDS     CLOUDY    58  49  73 MISG      29.67F
COLDWATER      SUNNY     64  38  39 W14G26    29.79F
FREMONT        CLOUDY    57  41  55 W13G22    29.70S
HOLLAND        MOSUNNY   63  44  50 W24G38    29.75S
GRAND RAPIDS   PTSUNNY   61  41  47 W24G30    29.73F
IONIA          PTSUNNY   62  42  48 W21G31    29.72S
KALAMAZOO      MOSUNNY   65  39  38 W23G33    29.78F
LUDINGTON      LGT RAIN  55  49  80 W9G18     29.67R
MARSHALL       PTSUNNY   64  45  49 SW17G28   29.77S
MOUNT PLEASANT CLOUDY    60  46  60 W10G18    29.68S
MUSKEGON       CLOUDY    60  45  57 W14G24    29.72S
SOUTH HAVEN    MOSUNNY   65  42  42 SW20G28   29.77S
$$
MIZ016>042-271700-
NORTHERN LOWER MICHIGAN

CITY           SKY/WX    TMP DP  RH WIND       PRES   REMARKS
ALPENA         PTSUNNY   60  45  57 SW12G18   29.60F
BEAVER ISLAND  CLOUDY    56  49  78 W16G25    29.55R
BELLAIRE       MIX PCPN  54  51  91 W6        29.61R
CADILLAC       DRIZZLE   52  49  89 SW10G16   29.65R
CHARLEVOIX     CLOUDY    55  49  80 SW16      29.60R
FRANKFORT      CLOUDY    58  46  66 W13G21    29.62S
GAYLORD        LGT RAIN  53  49  86 SW6       29.60S FOG
GRAYLING       CLOUDY    56  48  74 SW10G18   29.63S
HARBOR SPRINGS RAIN      54  52  91 W9G21     29.57R
HOUGHTON LAKE  LGT RAIN  55  46  71 SW9       29.65S
MANISTEE       LGT RAIN  56  48  74 W16G22    29.64S
OSCODA         CLOUDY    58  47  65 SW10      29.64F
PELLSTON       LGT RAIN  54  51  90 SW7       29.57R
ROGERS CITY    CLOUDY    58  48  69 SW12      29.59S
TRAVERSE CITY  LGT RAIN  57  50  77 VRB7      29.60S
$$
MIZ007>008-015-271700-
EASTERN UPPER MICHIGAN

CITY           SKY/WX    TMP DP  RH WIND       PRES   REMARKS
KINROSS        CLOUDY    57  48  72 W8        29.52F
MACKINAC ISLAN CLOUDY    55  50  83 W9G21     29.54R
NEWBERRY       CLOUDY    53  49  85 W10G17    29.51S
S. S. MARIE    PTSUNNY   59  49  69 VRB5      29.51F
MUNISING         N/A     52  50  93 W8        29.51S
$$
MIZ004>006-011>014-085-271700-
CENTRAL UPPER MICHIGAN

CITY           SKY/WX    TMP DP  RH WIND       PRES   REMARKS
MANISTIQUE     LGT RAIN  55  48  76 W6        29.53S
ESCANABA       CLOUDY    54  48  80 W13G22    29.56R
MENOMINEE      CLOUDY    57  46  66 NW9       29.59F
SAWYER-GWINN   LGT RAIN  50  46  87 W9        29.53S
$$
MIZ001>003-009>011-084-271700-
WESTERN UPPER MICHIGAN

CITY           SKY/WX    TMP DP  RH WIND       PRES   REMARKS
IRON MOUNTAIN  LGT RAIN  51  45  79 W9        29.57R
HOUGHTON       LGT RAIN  50  46  86 NW20      29.52R FOG
COPPER HARBOR    N/A     53  51  93 N17       29.48R
IRONWOOD       LGT RAIN  49  47  93 W14G20    29.63S FOG
$$

ABBREVIATIONS USED IN REMARKS
   TC - TEMPERATURE IN CELSIUS
  WCI - WIND CHILL INDEX
   HX - HEAT INDEX
  VSB - VISIBILITY





USA.gov is the U.S. government's official web portal to all federal, state and local government web resources and services.